Regional Weather Roundup
Issued by NWS

Home | Current Version | Previous Version | Graphics & Text | Print | Product List | Glossary On
Versions: 1 2 3 4 5 6 7 8 9 10 11 12 13 14 15 16 17 18 19 20 21 22 23 24 25 26 27 28 29 30 31 32 33 34 35 36 37 38 39 40 41 42 43 44 45 46 47 48 49 50
291
ASUS43 KLOT 292209
RWRIL

ILLINOIS REGIONAL WEATHER ROUNDUP
NATIONAL WEATHER SERVICE CHICAGO/ROMEOVILLE IL
500 PM CDT FRI JUL 29 2016

NOTE: "FAIR" INDICATES FEW OR NO CLOUDS BELOW 12,000 FEET WITH NO
SIGNIFICANT WEATHER AND/OR OBSTRUCTIONS TO VISIBILITY.

* THESE STATIONS ARE NOT UNDER NWS QUALITY CONTROL. THEY ALSO MAY NOT
  REPORT WEATHER SUCH AS PRECIPITATION OR FOG.

ILZ001-002-007-009-015-016-024-292300-
NORTHWEST ILLINOIS

CITY           SKY/WX    TMP DP  RH WIND       PRES   REMARKS
MOLINE         PTSUNNY   81  67  62 N9        29.91R HX  83
STERLING*      TSTM      71  69  93 SE3       29.92S
SAVANNA*       CLOUDY    74  66  75 N12G17    29.93R
$$

ILZ003-004-008-010-011-017-018-292300-
NORTH CENTRAL ILLINOIS

CITY           SKY/WX    TMP DP  RH WIND       PRES   REMARKS
ROCKFORD       TSTM      68  64  87 NE16      29.96R FOG
FREEPORT*      PTSUNNY   73  69  86 NE10      29.96R
ROCHELLE*      PTSUNNY   73  67  82 E12       29.93S
DE KALB*       CLOUDY    73  67  79 E10       29.94F
$$

ILZ005-006-012>014-019>023-292300-
NORTHEAST ILLINOIS

CITY           SKY/WX    TMP DP  RH WIND       PRES   REMARKS
CHICAGO-OHARE  CLOUDY    74  70  87 NE14      29.92S
CHICAGO-MIDWAY PTSUNNY   76  71  85 NE10      29.92R
AURORA         PTSUNNY   73  67  81 NE9       29.91F
LANSING*       CLOUDY    71  67  85 N7        29.94R THUNDER
JOLIET*        DRIZZLE   74  71  88 NE7       29.92S
WAUKEGAN       CLOUDY    72  67  84 N7        29.94F
DUPAGE AIRPORT CLOUDY    73  68  84 N10       29.93S
KANKAKEE*      CLOUDY    78  69  73 E8        29.91R HX  81
WHEELING       LGT RAIN  72  68  87 N9        29.94F
MORRIS*        PTSUNNY   72  67  85 E8        29.91S
ROMEOVILLE*    DRIZZLE   73  70  88 E6        29.92S
NORTHERLY ISL    N/A     73  69  87 NE12        N/A
$$

LMZ740>746-292300-
SOUTHERN LAKE MICHIGAN

STATION/POSITION SKY/WX   TEMP    WIND        PRES    VSBY  WAVE
                          AIR SEA DIR/SP/G                  HT/PER
                          (F)     (DEG/KT/KT) (MB)    (MI)  (FT/S)
SOUTHERN BUOY              73 74   60/ 16/ 19 1012.9F         3/ 6
WILMETTE HARBOR            73 73   60/ 14/ 17   N/A           4/ 5
HARRISON CRIB              75      30/ 14/ 16   N/A
BURNHAM HARBOR             71     120/ 11/ 12   N/A
CALUMET HARBOR             75     350/  7/ 13 1012.5F
BURNS HARBOR               70     140/  9/ 14 1013.5S
MICHIGAN CITY              67     130/  8/ 10   N/A
MICHIGAN CITY 6N           70 77   50/  2/  8   N/A           2/ 5
ST. JOSEPH                 73 76  100/ 12/ 16 1013.3R         2
$$

ILZ025>027-034>036-040-047-049-050-058-095>099-292300-
WEST-CENTRAL ILLINOIS

CITY           SKY/WX    TMP DP  RH WIND       PRES   REMARKS
QUINCY         MOSUNNY   79  68  69 NW8       29.94R HX  81
GALESBURG*     MOSUNNY   79  68  68 W8        29.92S HX  81
MACOMB*        MOSUNNY   77  66  68 W13       29.95S
JACKSONVILLE*  MOSUNNY   80  68  66 NW7       29.91F HX  83
PITTSFIELD*    MOSUNNY   81  68  65 W9        29.93S HX  84
$$

ILZ028>032-037-038-041>044-048-051>054-059>061-292300-
CENTRAL ILLINOIS

CITY           SKY/WX    TMP DP  RH WIND       PRES   REMARKS
PONTIAC        MOSUNNY   83  70  66 NW6       29.91R HX  86
BLOOMINGTON    MOSUNNY   81  67  62 W10       29.92R HX  83
DECATUR        SUNNY     83  64  52 W9        29.91R HX  84
PEORIA         SUNNY     80  67  64 W9        29.91R HX  82
LACON*         MOSUNNY   82  67  61 NW7       29.90R HX  84
LINCOLN*       MOSUNNY   82  69  65 W5        29.91S HX  85
SPRINGFIELD    PTSUNNY   83  68  60 NW8       29.91S HX  86
TAYLORVILLE    PTSUNNY   80  70  70 MISG      29.92S HX  84
$$

ILZ033-039-045-046-055>057-062-063-292300-
EAST-CENTRAL ILLINOIS

CITY           SKY/WX    TMP DP  RH WIND       PRES   REMARKS
CHAMPAIGN      SUNNY     82  68  62 W6        29.91R HX  85
MATTOON        SUNNY     83  66  56 NW8       29.90S HX  85
PARIS*         MOSUNNY   83  71  66 W3        29.91R HX  87
$$

ILZ079-100>102-292300-
SOUTHWEST ILLINOIS

CITY           SKY/WX    TMP DP  RH WIND       PRES   REMARKS
BELLEVILLE     PTSUNNY   85  71  63 VRB2      29.91R HX  89
CAHOKIA*       CLOUDY    85  67  54 W5        29.91R HX  87
SPARTA*        PTSUNNY   82  71  68 N3        29.93S HX  87
$$

ILZ064>066-069>071-074>076-080>082-084>086-088>090-092>094-292300-
SOUTH-CENTRAL ILLINOIS

CITY           SKY/WX    TMP DP  RH WIND       PRES   REMARKS
CARBONDALE     MOSUNNY   78  72  81 SW6       29.92F HX  80
CAIRO*         PTSUNNY   85  76  74 CALM      29.90S HX  94
EFFINGHAM*     SUNNY     82  68  62 W8        29.93S HX  85
MARION         CLOUDY    79  73  83 S6        29.93F HX  82
MT. VERNON     MOSUNNY   84  68  58 CALM      29.92S HX  87
CENTRALIA*     MOSUNNY   82  71  67 NW6       29.91S HX  87
SALEM*         PTSUNNY   83  70  64 NW6       29.91S HX  87
METROPOLIS*    PTSUNNY   85  76  75 NW6       29.92R HX  94
$$

ILZ067-068-072-073-078-083-087-091-292300-
SOUTHEAST ILLINOIS

CITY           SKY/WX    TMP DP  RH WIND       PRES   REMARKS
LAWRENCEVILLE  CLOUDY    79  75  87 SW6         N/A  HX  83
FLORA*         CLOUDY    83  72  67 NW5       29.91S HX  89
FAIRFIELD*     CLOUDY    80  73  78 CALM      29.90F HX  83
HARRISBURG*    CLOUDY    79  74  85 SW5       29.93S HX  82
ROBINSON*      CLOUDY    83  73  71 CALM      29.91S HX  89
CARMI*         CLOUDY    79  73  82 CALM      29.91F HX  83
$$

ABBREVIATIONS USED IN REMARKS
   TC - TEMPERATURE IN CELSIUS
  WCI - WIND CHILL INDEX
   HX - HEAT INDEX
  VSB - VISIBILITY
$$





USA.gov is the U.S. government's official web portal to all federal, state and local government web resources and services.